Change the Weather History Date:

Sunday, January 15, 2012

  Actual Average Record
Temperature  
Mean Temperature 28 °F -  
Max Temperature 35 °F 41 °F 53 °F (2002)
Min Temperature 19 °F 25 °F 11 °F (2009)
Degree Days  
Heating Degree Days 37    
Moisture  
Dew Point 10 °F    
Average Humidity 49    
Maximum Humidity 84    
Minimum Humidity 26    
Precipitation  
Precipitation 0.00 in - - ()
Sea Level Pressure  
Sea Level Pressure 30.43 in    
Wind  
Wind Speed 5 mph (NW)    
Max Wind Speed 14 mph    
Max Gust Speed 18 mph    
Visibility 10 miles    
Events      
Averages and records for this station are not official NWS values.
T = Trace of Precipitation, MM = Missing Value Source: NWS Daily Summary

Daily Weather History Graph

Daily Weather History Graph

Search for Another Location

Airport or City:

Trip Planner

Search our weather history database for the weather conditions in past years. The results will help you decide how hot, cold, wet, or windy it might be!

Date:

Astronomy

Jan. 15, 2012 Rise Set
Actual Time 7:25 AM EST 5:10 PM EST
Civil Twilight 6:56 AM EST 5:39 PM EST
Nautical Twilight 6:23 AM EST 6:12 PM EST
Astronomical Twilight 5:51 AM EST 6:44 PM EST
Moon No Moon Rise 10:47 AM EST (1/15)
Length of Visible Light 10h 43m
Length of Day
9h 45m
Waning Gibbous, 58% of the Moon is Illuminated
Jan 15
Waning Gibbous
Jan 16
Last Quarter
Jan 23
New
Jan 30
First Quarter
Feb 7
Full

Hourly Weather History & Observations

Time (EST) Temp. Windchill Dew Point Humidity Pressure Visibility Wind Dir Wind Speed Gust Speed Precip Events Conditions
12:55 AM 29.7 °F - 12.4 °F 49% 30.19 in 10.0 mi Calm Calm - N/A   Overcast
1:55 AM 30.0 °F 26.5 °F 12.0 °F 47% 30.20 in 10.0 mi NNW 3.5 mph - N/A   Overcast
2:55 AM 30.0 °F 21.1 °F 12.0 °F 47% 30.21 in 10.0 mi NW 10.4 mph 17.3 mph N/A   Overcast
3:55 AM 29.7 °F 22.8 °F 11.7 °F 47% 30.24 in 10.0 mi Variable 6.9 mph - N/A   Scattered Clouds
4:55 AM 28.2 °F 18.9 °F 10.9 °F 48% 30.26 in 10.0 mi NNW 10.4 mph - N/A   Partly Cloudy
5:55 AM 26.8 °F 22.8 °F 11.7 °F 53% 30.30 in 10.0 mi Variable 3.5 mph - N/A   Clear
6:55 AM 24.4 °F 16.5 °F 12.6 °F 61% 30.34 in 10.0 mi WNW 6.9 mph - N/A   Clear
7:55 AM 25.5 °F 16.2 °F 12.4 °F 58% 30.38 in 10.0 mi WNW 9.2 mph - N/A   Clear
8:55 AM 28.2 °F 20.2 °F 12.4 °F 52% 30.42 in 10.0 mi NW 8.1 mph - N/A   Clear
9:55 AM 30.0 °F 21.7 °F 12.2 °F 48% 30.45 in 10.0 mi North 9.2 mph 17.3 mph N/A   Clear
10:55 AM 31.3 °F 23.9 °F 10.4 °F 42% 30.47 in 10.0 mi NW 8.1 mph 18.4 mph N/A   Clear
11:55 AM 32.9 °F 25.9 °F 6.8 °F 33% 30.45 in 10.0 mi North 8.1 mph - N/A   Clear
12:55 PM 34.2 °F 24.8 °F 4.5 °F 29% 30.44 in 10.0 mi WNW 13.8 mph 17.3 mph N/A   Clear
1:55 PM 35.1 °F 29.3 °F 3.4 °F 26% 30.44 in 10.0 mi Variable 6.9 mph - N/A   Clear
2:55 PM 34.9 °F 26.6 °F 2.8 °F 26% 30.47 in 10.0 mi NW 11.5 mph - N/A   Clear
3:55 PM 34.7 °F 26.4 °F 5.9 °F 30% 30.49 in 10.0 mi WNW 11.5 mph - N/A   Clear
4:55 PM 32.2 °F 27.7 °F 6.8 °F 34% 30.52 in 10.0 mi WNW 4.6 mph - N/A   Clear
5:55 PM 29.5 °F - 6.4 °F 38% 30.54 in 10.0 mi Calm Calm - N/A   Clear
6:55 PM 26.1 °F - 9.7 °F 50% 30.55 in 10.0 mi Calm Calm - N/A   Clear
7:55 PM 24.8 °F - 11.1 °F 56% 30.57 in 10.0 mi Calm Calm - N/A   Clear
8:55 PM 22.3 °F - 13.3 °F 68% 30.58 in 10.0 mi Calm Calm - N/A   Clear
9:55 PM 22.5 °F - 13.5 °F 68% 30.59 in 10.0 mi Calm Calm - N/A   Clear
10:55 PM 21.6 °F - 14.5 °F 74% 30.61 in 10.0 mi Calm Calm - N/A   Clear
11:55 PM 19.8 °F - 15.6 °F 84% 30.61 in 10.0 mi Calm Calm - N/A   Clear